CW0198 Weather Reports


Display with metric or nautical units.
time (UTC)temp
F
wind
direction
speed
MPH
gust
MPH
rain 1hr
in
rain 24hr
in
rain mn
in
humidity
%
barometer
mb
20190224035802 42 320 0.0 0.0 0.00 1.55 1.54 97 1019.6
20190224035302 42 323 0.0 1.0 0.00 1.55 1.54 97 1019.7
20190224034802 42 322 0.0 2.0 0.00 1.55 1.54 97 1019.7
20190224034302 42 356 0.0 2.0 0.00 1.55 1.54 97 1019.8
20190224033802 42 312 0.0 2.0 0.00 1.55 1.54 97 1019.9
20190224033302 42 329 0.0 1.0 0.00 1.55 1.54 97 1019.8
20190224032802 42 12 0.0 1.0 0.00 1.55 1.54 97 1019.6
20190224032303 42 11 0.0 1.0 0.00 1.55 1.54 97 1019.7
20190224031803 42 2 0.0 1.0 0.00 1.55 1.54 97 1019.6
20190224031302 42 351 0.0 1.0 0.00 1.55 1.54 97 1019.7
20190224030802 42 325 0.0 2.0 0.00 1.55 1.54 97 1019.8
20190224030302 42 44 0.0 2.0 0.00 1.55 1.54 97 1019.7
20190224025802 42 349 0.0 2.0 0.00 1.55 1.54 97 1019.8
20190224025303 42 32 0.0 1.0 0.00 1.55 1.54 97 1019.8
20190224024802 42 352 0.0 1.0 0.00 1.56 1.54 97 1019.9
20190224024302 42 340 0.0 2.0 0.00 1.56 1.54 97 1020.0
20190224023802 42 65 0.0 2.0 0.00 1.56 1.54 97 1019.7
20190224023303 42 75 0.0 1.0 0.00 1.56 1.54 97 1019.9
20190224022802 42 23 0.0 1.0 0.00 1.56 1.54 97 1020.1
20190224022302 42 33 0.0 3.0 0.00 1.56 1.54 97 1020.1
20190224021802 42 29 0.0 3.0 0.00 1.56 1.54 97 1020.0
20190224021302 42 21 1.0 5.0 0.00 1.56 1.54 97 1020.2
20190224020802 42 27 0.0 5.0 0.00 1.56 1.54 97 1020.3
20190224020302 42 349 1.0 3.0 0.00 1.56 1.54 97 1020.4
20190224015802 42 0 1.0 3.0 0.00 1.56 1.54 97 1020.3
20190224015302 42 23 1.0 3.0 0.01 1.56 1.54 97 1020.3
20190224014802 42 12 1.0 3.0 0.01 1.56 1.54 97 1020.4
20190224014302 42 339 1.0 3.0 0.02 1.56 1.54 97 1020.4
20190224013802 42 335 0.0 3.0 0.02 1.56 1.54 97 1020.5
20190224013303 42 359 0.0 3.0 0.02 1.56 1.54 97 1020.4
20190224012802 42 323 1.0 3.0 0.02 1.56 1.54 97 1020.5
20190224012302 42 21 0.0 3.0 0.02 1.56 1.54 97 1020.6
20190224011802 42 355 1.0 2.0 0.02 1.56 1.54 97 1020.7
20190224011302 42 23 0.0 3.0 0.02 1.56 1.54 97 1020.6
20190224010802 42 342 0.0 3.0 0.02 1.56 1.54 97 1020.8
20190224010302 42 35 1.0 3.0 0.02 1.56 1.54 97 1020.7
20190224005802 42 349 1.0 3.0 0.02 1.56 1.54 97 1020.8
20190224005302 42 346 0.0 3.0 0.01 1.55 1.53 97 1020.9
20190224004802 42 343 1.0 3.0 0.01 1.56 1.53 97 1021.0
20190224004303 42 358 1.0 3.0 0.00 1.55 1.52 97 1021.0
20190224003802 42 311 1.0 3.0 0.00 1.55 1.52 97 1021.0
20190224003302 42 342 1.0 3.0 0.02 1.56 1.52 97 1020.8
20190224002802 42 5 1.0 3.0 0.02 1.56 1.52 97 1020.7
20190224002302 42 355 0.0 2.0 0.02 1.56 1.52 97 1020.8
20190224001802 42 1 0.0 2.0 0.02 1.56 1.52 97 1020.7
20190224001302 42 345 0.0 2.0 0.02 1.57 1.52 97 1020.6
20190224000803 42 342 1.0 2.0 0.02 1.57 1.52 97 1021.0
20190224000302 42 355 0.0 1.0 0.02 1.57 1.52 97 1020.7
20190223235803 42 23 0.0 2.0 0.02 1.57 1.52 97 1020.4
20190223235302 42 25 1.0 3.0 0.04 1.57 1.52 97 1020.2
20190223234802 42 5 1.0 8.0 0.04 1.58 1.52 97 1020.2
20190223234302 42 296 2.0 8.0 0.05 1.58 1.52 97 1020.1
20190223233802 42 183 3.0 8.0 0.05 1.58 1.52 97 1019.8
20190223233302 42 185 1.0 2.0 0.04 1.56 1.50 97 1020.4
20190223232802 42 193 0.0 0.0 0.04 1.56 1.50 97 1021.0
20190223232302 42 291 0.0 0.0 0.05 1.57 1.50 97 1020.9
20190223231803 42 291 0.0 2.0 0.05 1.57 1.50 97 1021.0
20190223231303 42 94 0.0 3.0 0.05 1.57 1.50 97 1020.9
20190223230802 42 312 1.0 5.0 0.05 1.57 1.50 97 1021.1
20190223230302 42 294 2.0 5.0 0.08 1.57 1.50 97 1021.6
20190223225802 42 346 2.0 3.0 0.10 1.58 1.50 97 1021.5
20190223225302 42 73 1.0 3.0 0.09 1.56 1.48 97 1021.4
20190223224802 42 24 1.0 3.0 0.09 1.57 1.48 97 1021.4
20190223224302 42 23 0.0 2.0 0.09 1.56 1.47 97 1021.5
20190223223802 42 68 1.0 2.0 0.10 1.57 1.47 97 1021.2
20190223223304 42 40 0.0 3.0 0.10 1.56 1.46 97 1021.5
20190223222802 42 18 1.0 3.0 0.11 1.56 1.46 97 1021.3
20190223222302 42 30 2.0 3.0 0.10 1.55 1.45 97 1021.5
20190223221802 42 357 1.0 3.0 0.11 1.55 1.45 97 1021.6
20190223221302 42 49 0.0 3.0 0.12 1.55 1.45 97 1021.6
20190223220802 42 337 0.0 3.0 0.14 1.55 1.45 97 1022.2
20190223220302 42 357 1.0 3.0 0.12 1.52 1.42 97 1022.2
20190223215802 42 326 1.0 3.0 0.11 1.50 1.40 97 1022.3
20190223215302 43 343 1.0 3.0 0.10 1.49 1.39 97 1022.2
20190223214802 43 17 0.0 3.0 0.11 1.49 1.39 97 1021.8
20190223214302 43 49 0.0 3.0 0.10 1.48 1.38 97 1021.8
20190223213802 43 350 1.0 3.0 0.10 1.47 1.37 97 1022.4
20190223213302 43 349 1.0 2.0 0.11 1.46 1.36 97 1022.5
20190223212802 43 20 0.0 0.0 0.11 1.45 1.35 97 1021.7
20190223212302 43 13 0.0 0.0 0.12 1.45 1.35 97 1022.2
20190223211802 43 20 0.0 1.0 0.12 1.44 1.34 97 1022.4
20190223211302 43 17 0.0 3.0 0.12 1.43 1.33 97 1022.6
20190223210802 43 326 0.0 3.0 0.11 1.42 1.31 97 1022.8
20190223210302 43 25 1.0 3.0 0.11 1.41 1.30 97 1022.7
20190223205802 43 24 1.0 3.0 0.11 1.40 1.29 97 1022.7
20190223205302 43 356 1.0 3.0 0.12 1.40 1.29 97 1022.5
20190223204803 43 53 1.0 3.0 0.13 1.40 1.28 97 1022.3
20190223204302 43 39 0.0 0.0 0.15 1.40 1.28 97 1022.0
20190223203803 43 51 0.0 3.0 0.15 1.40 1.27 97 1022.2
20190223203303 43 33 0.0 3.0 0.14 1.38 1.25 97 1022.2
20190223202802 43 6 1.0 3.0 0.14 1.37 1.24 97 1022.4
20190223202303 43 109 0.0 3.0 0.14 1.36 1.23 97 1022.2
20190223201802 43 84 1.0 3.0 0.13 1.35 1.22 97 1022.3
20190223201303 43 58 0.0 1.0 0.13 1.34 1.21 97 1022.6
20190223200802 43 49 1.0 1.0 0.13 1.33 1.20 97 1022.6
20190223200302 43 99 0.0 3.0 0.14 1.32 1.19 97 1022.7
20190223195802 43 97 0.0 3.0 0.15 1.31 1.18 97 1022.9
20190223195303 43 42 2.0 3.0 0.15 1.30 1.17 97 1022.9
20190223194802 43 68 1.0 2.0 0.15 1.28 1.15 97 1022.9
20190223194302 43 54 1.0 3.0 0.14 1.26 1.13 97 1023.0
20190223193802 43 46 0.0 3.0 0.14 1.25 1.12 97 1023.1
20190223193302 43 72 1.0 3.0 0.14 1.24 1.11 97 1023.2
20190223192803 43 60 1.0 3.0 0.15 1.23 1.10 97 1023.2
20190223192302 43 44 2.0 3.0 0.14 1.22 1.09 97 1023.2
20190223191803 43 70 0.0 2.0 0.16 1.22 1.09 97 1023.4
20190223191302 43 5 0.0 2.0 0.16 1.21 1.08 97 1023.6
20190223190803 43 16 1.0 2.0 0.16 1.20 1.07 97 1023.8
20190223190302 43 29 0.0 2.0 0.15 1.18 1.05 97 1023.9
20190223185802 43 30 0.0 2.0 0.13 1.16 1.03 97 1023.9
20190223185302 42 40 1.0 2.0 0.13 1.15 1.02 96 1023.7
20190223184803 42 340 0.0 3.0 0.12 1.13 1.00 96 1023.9
20190223184303 42 60 1.0 3.0 0.12 1.12 0.99 96 1023.7
20190223183802 42 93 1.0 2.0 0.12 1.11 0.98 96 1023.7
20190223183303 42 112 1.0 2.0 0.11 1.10 0.97 96 1024.0
20190223182802 42 101 0.0 2.0 0.10 1.08 0.95 96 1024.2
20190223182302 42 117 1.0 2.0 0.12 1.08 0.95 96 1023.9
20190223181802 42 28 1.0 2.0 0.13 1.06 0.93 96 1024.0
20190223181303 42 51 0.0 3.0 0.13 1.05 0.92 96 1024.2
20190223180802 42 332 0.0 6.0 0.13 1.04 0.91 96 1024.4
20190223180302 42 50 0.0 6.0 0.13 1.03 0.90 96 1024.3
20190223175802 42 78 0.0 3.0 0.14 1.03 0.90 96 1024.3
20190223175303 42 96 1.0 3.0 0.14 1.02 0.89 96 1024.5
20190223174802 42 94 1.0 2.0 0.14 1.01 0.88 96 1024.8
20190223174303 42 348 1.0 6.0 0.14 1.00 0.87 96 1025.3
20190223173802 42 159 1.0 6.0 0.14 0.99 0.86 96 1025.0
20190223173303 42 97 0.0 5.0 0.15 0.99 0.86 96 1024.7
20190223172803 42 179 1.0 5.0 0.14 0.98 0.85 96 1025.0
20190223172302 42 78 0.0 6.0 0.13 0.96 0.83 96 1025.3
20190223171802 42 127 1.0 6.0 0.11 0.93 0.80 96 1025.4
20190223171302 42 60 2.0 6.0 0.12 0.92 0.79 96 1025.4
20190223170802 42 49 1.0 6.0 0.13 0.91 0.78 96 1025.5
20190223170303 42 52 0.0 6.0 0.14 0.90 0.77 96 1025.7
20190223165802 42 198 1.0 6.0 0.13 0.89 0.76 96 1025.8
20190223165303 41 90 2.0 7.0 0.13 0.88 0.75 96 1025.9
20190223164803 41 65 3.0 7.0 0.12 0.87 0.74 96 1026.0
20190223164303 41 69 1.0 5.0 0.11 0.86 0.73 96 1026.2
20190223163803 41 62 2.0 8.0 0.11 0.85 0.72 96 1026.4
20190223163303 41 59 1.0 8.0 0.10 0.84 0.71 96 1026.6
20190223162802 41 38 1.0 8.0 0.10 0.84 0.71 96 1026.5
20190223162303 41 55 2.0 5.0 0.09 0.83 0.70 96 1026.5
20190223161802 41 66 3.0 5.0 0.08 0.82 0.69 96 1026.8
20190223161303 41 62 2.0 3.0 0.06 0.80 0.67 96 1027.0
20190223160803 41 42 0.0 3.0 0.05 0.78 0.65 96 1027.0
20190223160302 41 44 1.0 6.0 0.04 0.76 0.63 96 1027.3
20190223155802 41 65 1.0 6.0 0.05 0.76 0.63 96 1027.0
20190223155302 41 65 1.0 7.0 0.05 0.75 0.62 96 1026.9
20190223154802 41 78 3.0 7.0 0.06 0.75 0.62 96 1026.8
20190223154303 41 26 0.0 6.0 0.07 0.75 0.62 96 1026.7
20190223153803 41 69 2.0 6.0 0.07 0.74 0.61 96 1026.8
20190223153302 41 97 2.0 8.0 0.08 0.74 0.61 96 1026.8
20190223152802 40 56 3.0 8.0 0.09 0.75 0.61 96 1026.8
20190223152302 40 121 2.0 6.0 0.10 0.76 0.61 96 1027.1
20190223151802 40 210 1.0 6.0 0.12 0.76 0.61 96 1027.3
20190223151303 40 59 1.0 6.0 0.13 0.76 0.61 96 1027.5
20190223150802 40 64 1.0 6.0 0.14 0.75 0.60 96 1027.6
20190223150302 40 82 1.0 6.0 0.14 0.74 0.59 96 1027.7
20190223145802 40 79 2.0 5.0 0.14 0.73 0.58 96 1028.0
20190223145302 40 53 1.0 3.0 0.14 0.72 0.57 96 1028.3
20190223144802 40 13 2.0 3.0 0.14 0.72 0.56 96 1028.1
20190223144302 40 71 2.0 6.0 0.14 0.71 0.55 96 1028.1
20190223143802 40 74 2.0 6.0 0.15 0.70 0.54 96 1028.2
20190223143303 40 44 1.0 6.0 0.17 0.69 0.53 96 1028.0
20190223142803 40 64 2.0 7.0 0.18 0.69 0.52 97 1027.9
20190223142302 40 88 2.0 7.0 0.19 0.68 0.51 96 1028.1
20190223141803 40 73 1.0 5.0 0.18 0.67 0.49 97 1028.2
20190223141302 40 97 2.0 5.0 0.19 0.66 0.48 97 1028.4
20190223140802 40 88 0.0 7.0 0.19 0.66 0.46 97 1028.4
20190223140303 40 46 2.0 7.0 0.21 0.67 0.45 97 1028.2
20190223135803 40 82 1.0 6.0 0.22 0.67 0.44 96 1028.4
20190223135302 40 60 1.0 6.0 0.23 0.66 0.43 96 1028.3
20190223134803 40 49 2.0 5.0 0.23 0.65 0.42 96 1028.4
20190223134302 40 66 2.0 5.0 0.23 0.64 0.41 96 1028.6
20190223133803 40 70 1.0 3.0 0.22 0.63 0.39 96 1028.8
20190223133303 40 48 1.0 3.0 0.20 0.61 0.36 96 1029.1
20190223132802 40 15 1.0 3.0 0.19 0.60 0.34 96 1029.2
20190223132303 40 355 1.0 3.0 0.18 0.59 0.32 96 1028.8
20190223131803 40 49 1.0 3.0 0.18 0.59 0.31 96 1028.6
20190223131303 39 54 2.0 3.0 0.17 0.57 0.29 96 1028.5
20190223130803 39 47 1.0 5.0 0.16 0.56 0.27 96 1028.6
20190223130303 39 77 2.0 5.0 0.14 0.54 0.24 96 1028.3
20190223125803 39 39 1.0 5.0 0.14 0.53 0.22 96 1028.3
20190223125302 39 68 2.0 3.0 0.14 0.51 0.20 96 1028.2
20190223124802 39 40 2.0 3.0 0.14 0.50 0.19 96 1028.2
20190223124303 39 45 2.0 5.0 0.13 0.50 0.18 96 1028.1
20190223123802 39 52 2.0 5.0 0.12 0.49 0.17 96 1028.1
20190223123303 39 348 2.0 5.0 0.11 0.48 0.16 96 1028.0
20190223122802 39 56 1.0 3.0 0.10 0.48 0.15 96 1028.0
20190223122303 39 81 1.0 3.0 0.10 0.48 0.14 96 1028.0
20190223121802 39 49 1.0 3.0 0.09 0.47 0.13 96 1028.0
20190223121303 39 80 1.0 3.0 0.08 0.47 0.12 96 1028.0
20190223120803 39 56 1.0 3.0 0.07 0.47 0.11 96 1027.9
20190223120302 39 63 0.0 8.0 0.06 0.47 0.10 96 1027.8
20190223115803 39 68 1.0 8.0 0.04 0.46 0.08 96 1028.0
20190223115303 39 83 2.0 7.0 0.02 0.46 0.06 96 1027.9
20190223114802 39 325 1.0 7.0 0.01 0.47 0.05 96 1028.2
20190223114303 39 30 1.0 6.0 0.01 0.47 0.05 96 1028.2
20190223113802 39 78 1.0 3.0 0.01 0.48 0.05 96 1028.1
20190223113303 39 55 1.0 6.0 0.01 0.49 0.05 96 1028.1
20190223112802 39 73 2.0 6.0 0.01 0.50 0.05 96 1028.0
20190223112303 39 73 1.0 3.0 0.00 0.49 0.04 96 1028.0
20190223111802 39 42 1.0 3.0 0.00 0.49 0.04 96 1028.0
20190223111303 39 86 0.0 3.0 0.00 0.50 0.04 96 1028.0
20190223110802 39 59 1.0 3.0 0.00 0.51 0.04 96 1028.0
20190223110303 39 67 1.0 3.0 0.00 0.52 0.04 96 1028.0
20190223105803 39 42 1.0 3.0 0.00 0.54 0.04 96 1028.0
20190223105302 39 58 2.0 3.0 0.00 0.55 0.04 96 1027.9
20190223104803 39 72 0.0 3.0 0.00 0.56 0.04 96 1027.8
20190223104302 39 31 1.0 3.0 0.00 0.56 0.04 96 1027.8
20190223103803 39 80 1.0 6.0 0.00 0.57 0.04 96 1027.8
20190223103303 39 49 2.0 6.0 0.00 0.57 0.04 96 1027.6
20190223102803 39 92 2.0 6.0 0.00 0.58 0.04 96 1027.8
20190223102302 39 42 1.0 5.0 0.00 0.58 0.04 96 1027.8
20190223101803 39 60 2.0 5.0 0.00 0.58 0.04 96 1027.9
20190223101302 39 55 2.0 6.0 0.00 0.58 0.04 96 1027.9
20190223100803 39 88 2.0 6.0 0.00 0.58 0.04 96 1027.8
20190223100302 39 65 1.0 6.0 0.01 0.59 0.04 96 1027.8
20190223095803 39 40 2.0 6.0 0.01 0.59 0.04 96 1028.0
20190223095302 39 66 1.0 3.0 0.01 0.60 0.04 96 1028.1
20190223094802 39 107 1.0 3.0 0.01 0.61 0.04 96 1028.1
20190223094302 39 79 0.0 5.0 0.01 0.62 0.04 96 1028.1
20190223093803 39 86 1.0 5.0 0.01 0.63 0.04 96 1028.2
20190223093303 39 56 0.0 3.0 0.01 0.64 0.04 96 1028.2
20190223092803 39 78 0.0 3.0 0.01 0.64 0.04 96 1028.2
20190223092303 39 141 0.0 5.0 0.02 0.64 0.04 96 1028.0
20190223091803 39 103 2.0 5.0 0.02 0.64 0.04 96 1027.8
20190223091302 39 60 2.0 3.0 0.02 0.64 0.04 96 1028.0
20190223090803 39 106 0.0 3.0 0.02 0.65 0.04 96 1028.2
20190223090303 39 85 1.0 5.0 0.01 0.64 0.03 96 1028.2
20190223085803 39 52 1.0 5.0 0.01 0.64 0.03 96 1028.3
20190223085303 39 44 1.0 5.0 0.01 0.64 0.03 96 1028.2
20190223084803 39 88 1.0 3.0 0.01 0.65 0.03 95 1028.1
20190223084302 39 106 1.0 3.0 0.01 0.65 0.03 95 1028.2
20190223083803 39 96 1.0 3.0 0.01 0.65 0.03 95 1028.2
20190223083303 39 76 1.0 3.0 0.01 0.65 0.03 95 1028.3
20190223082803 39 58 1.0 3.0 0.01 0.65 0.03 95 1028.5
20190223082302 39 91 2.0 5.0 0.00 0.64 0.02 95 1028.5
20190223081803 39 51 1.0 5.0 0.00 0.64 0.02 95 1028.8
20190223081302 39 37 1.0 3.0 0.00 0.65 0.02 95 1028.7
20190223080803 39 71 1.0 3.0 0.00 0.65 0.02 95 1028.7
20190223080303 40 103 0.0 5.0 0.00 0.65 0.02 95 1028.8
20190223075803 39 26 1.0 5.0 0.00 0.65 0.02 95 1029.0
20190223075303 39 61 2.0 7.0 0.00 0.65 0.02 95 1028.8
20190223074802 39 81 1.0 7.0 0.00 0.66 0.02 95 1028.5
20190223074303 39 116 1.0 5.0 0.00 0.67 0.02 95 1028.4
20190223073802 39 76 2.0 5.0 0.00 0.67 0.02 95 1028.6
20190223073303 39 91 1.0 3.0 0.00 0.67 0.02 95 1028.7
20190223072803 39 89 2.0 5.0 0.00 0.67 0.02 95 1028.5
20190223072303 39 98 2.0 5.0 0.00 0.68 0.02 95 1028.6
20190223071802 39 106 0.0 3.0 0.00 0.68 0.02 95 1028.6
20190223071303 39 75 1.0 3.0 0.00 0.68 0.02 95 1028.9
20190223070803 39 60 1.0 3.0 0.00 0.68 0.02 95 1028.3
20190223070303 39 87 0.0 0.0 0.00 0.68 0.02 95 1028.9
20190223065804 39 113 0.0 3.0 0.00 0.68 0.02 95 1029.2
20190223065303 39 100 0.0 3.0 0.00 0.68 0.02 95 1029.4
20190223064803 39 140 0.0 3.0 0.00 0.68 0.02 95 1029.6
20190223064303 39 141 1.0 3.0 0.01 0.68 0.02 95 1029.6
20190223063803 39 46 0.0 3.0 0.01 0.68 0.02 95 1029.8
20190223063303 39 56 1.0 3.0 0.01 0.69 0.02 95 1029.7
20190223062803 39 77 2.0 5.0 0.02 0.69 0.02 94 1029.7
20190223062302 39 87 1.0 6.0 0.02 0.69 0.02 94 1029.6
20190223061803 39 76 2.0 6.0 0.02 0.69 0.02 94 1029.7
20190223061303 39 50 3.0 8.0 0.02 0.70 0.02 94 1029.5
20190223060802 39 57 1.0 8.0 0.02 0.70 0.02 94 1029.3
20190223060303 39 74 1.0 6.0 0.02 0.71 0.02 94 1029.3
20190223055802 39 92 2.0 6.0 0.03 0.71 0.02 94 1029.4
20190223055303 39 66 2.0 7.0 0.03 0.71 0.02 94 1029.4
20190223054802 39 49 3.0 7.0 0.03 0.71 0.02 94 1029.5
20190223054304 39 40 3.0 6.0 0.02 0.70 0.01 94 1029.6
20190223053803 39 53 3.0 7.0 0.02 0.70 0.01 94 1029.3
20190223053303 39 81 2.0 7.0 0.02 0.70 0.01 94 1029.6
20190223052802 39 100 2.0 6.0 0.01 0.69 0.00 94 1029.5
20190223052303 39 56 1.0 5.0 0.01 0.69 0.00 94 1029.8
20190223051803 39 87 2.0 5.0 0.01 0.69 0.00 93 1029.4
20190223051303 40 59 1.0 10.0 0.01 0.69 0.00 93 1029.7
20190223050803 40 56 3.0 10.0 0.01 0.69 0.00 93 1029.4
20190223050303 40 94 1.0 7.0 0.01 0.69 0.00 93 1029.6
20190223045803 40 44 2.0 7.0 0.01 0.69 0.69 93 1029.5
20190223045303 40 71 1.0 7.0 0.00 0.68 0.68 93 1030.0
20190223044803 41 46 1.0 7.0 0.00 0.68 0.68 93 1029.8
20190223044303 41 27 2.0 3.0 0.00 0.68 0.68 93 1029.8
20190223043803 41 128 1.0 6.0 0.00 0.68 0.68 93 1029.8
20190223043303 41 31 2.0 7.0 0.00 0.68 0.68 93 1029.9
20190223042803 41 91 2.0 7.0 0.00 0.68 0.68 93 1029.8
20190223042303 41 64 3.0 6.0 0.00 0.68 0.68 94 1029.9
20190223041803 41 55 0.0 5.0 0.00 0.68 0.68 94 1029.8
20190223041302 41 356 1.0 3.0 0.00 0.68 0.68 94 1029.8
20190223040803 41 90 1.0 3.0 0.00 0.68 0.68 94 1029.5
20190223040303 41 7 1.0 3.0 0.00 0.68 0.68 94 1029.8